Date,TemperatureHighF,TemperatureAvgF,TemperatureLowF,DewpointHighF,DewpointAvgF,DewpointLowF,HumidityHigh,HumidityAvg,HumidityLow,PressureMaxIn,PressureMinIn,WindSpeedMaxMPH,WindSpeedAvgMPH,GustSpeedMaxMPH,PrecipitationSumIn
2013-11-2,45,37,28,-100,-100,-100,0,0,100,0.00,40.00,0,-999,0,0.00
2013-11-3,32,29,27,-100,-100,-100,0,0,100,0.00,40.00,0,-999,0,0.00
2013-11-4,32,27,22,-100,-100,-100,0,0,100,0.00,40.00,0,-999,0,0.02
2013-11-5,26,15,4,-100,-100,-100,0,0,100,0.00,40.00,0,-999,0,0.01
2013-11-6,23,19,11,-100,-100,-100,0,0,100,0.00,40.00,0,-999,0,0.00
2013-11-7,25,24,24,-100,-100,-100,0,0,100,0.00,40.00,0,-999,0,0.00
2013-11-8,41,31,26,-100,-100,-100,0,0,100,0.00,40.00,0,-999,0,0.00
2013-11-13,40,35,27,-100,-100,-100,0,0,100,0.00,40.00,0,-999,0,0.00
2013-11-14,36,28,23,-100,-100,-100,0,0,100,0.00,40.00,0,-999,0,0.00
2013-11-15,26,26,26,-100,-100,-100,0,0,100,0.00,40.00,0,-999,0,0.00
2013-11-16,23,22,20,-100,-100,-100,0,0,100,0.00,40.00,0,-999,0,0.03
2013-11-17,30,24,20,-100,-100,-100,0,0,100,0.00,40.00,0,-999,0,0.00
2013-11-18,45,27,18,-100,-100,-100,0,0,100,0.00,40.00,0,-999,0,0.00
2013-11-19,42,30,25,-100,-100,-100,0,0,100,0.00,40.00,0,-999,0,0.00
2013-11-20,25,23,19,-100,-100,-100,0,0,100,0.00,40.00,0,-999,0,0.01
2013-11-21,29,26,23,-100,-100,-100,0,0,100,0.00,40.00,0,-999,0,0.02
2013-11-22,25,24,23,-100,-100,-100,0,0,100,0.00,40.00,0,-999,0,0.00
2013-11-23,30,26,22,-100,-100,-100,0,0,100,0.00,40.00,0,-999,0,0.04
2013-11-24,27,22,17,-100,-100,-100,0,0,100,0.00,40.00,0,-999,0,0.02
2013-11-25,20,18,16,-100,-100,-100,0,0,100,0.00,40.00,0,-999,0,0.00
2013-11-26,25,18,14,-100,-100,-100,0,0,100,0.00,40.00,0,-999,0,0.00
2013-11-27,40,28,18,-100,-100,-100,0,0,100,0.00,40.00,0,-999,0,0.00
2013-11-28,36,27,20,-100,-100,-100,0,0,100,0.00,40.00,0,-999,0,0.00
2013-11-29,34,25,19,-100,-100,-100,0,0,100,0.00,40.00,0,-999,0,0.00
2013-11-30,33,20,14,-100,-100,-100,0,0,100,0.00,40.00,0,-999,0,0.00